Location: *
(46.3500°N, 10.9000°E)
Time: 19:09:43
(UTC+00:00)

Explorer 11/Cluster Stage 4 - Pass Details

Date: 18 April 2021
Orbit: 467 x 1257 km, 28.8° (Epoch: 07 May)

Event Time Altitude Azimuth Distance (km) Brightness Sun altitude
Rises 08:48:34 0° 229° (SW) 2,994 9.5 42.9°
Reaches altitude 10° 08:52:17 10° 199° (SSW) 2,264 9.3 43.4°
Maximum altitude 08:54:25 12° 175° (S) 2,209 9.5 43.7°
Drops below altitude 10° 08:56:41 10° 152° (SSE) 2,484 10.1 44.0°
Sets 09:01:16 0° 125° (SE) 3,645 10.8 44.6°
